Clovis, NM

5:55 AM MDT on March 30, 2017 (GMT -0600)
Clovis Municipal

Weather History for KCVN - October, 2012

Change the Weather History Date:

Thursday, October 25, 2012

  Actual Average Record
Temperature  
Mean Temperature 48 °F -  
Max Temperature 62 °F 68 °F 88 °F (1941)
Min Temperature 35 °F 40 °F 26 °F (1918)
Degree Days  
Heating Degree Days 16    
Moisture  
Dew Point 28 °F    
Average Humidity 47    
Maximum Humidity 71    
Minimum Humidity 26    
Precipitation  
Precipitation 0.00 in - - ()
Sea Level Pressure  
Sea Level Pressure 30.10 in    
Wind  
Wind Speed 16 mph (NNE)    
Max Wind Speed 28 mph    
Max Gust Speed 34 mph    
Visibility 10 miles    
Events      
Averages and records for this station are not official NWS values.
T = Trace of Precipitation, MM = Missing Value Source: NWS Daily Summary

Daily Weather History Graph

Daily Weather History Graph

Search for Another Location

Airport or City:

Trip Planner

Search our weather history database for the weather conditions in past years. The results will help you decide how hot, cold, wet, or windy it might be!

Date:

Astronomy

Oct. 25, 2012 Rise Set
Actual Time 7:06 AM MDT 6:05 PM MDT
Civil Twilight 6:40 AM MDT 6:31 PM MDT
Nautical Twilight 6:11 AM MDT 7:00 PM MDT
Astronomical Twilight 5:42 AM MDT 7:29 PM MDT
Moon 3:45 PM MDT (10/25) 3:14 AM MDT (10/25)
Length of Visible Light 11h 50m
Length of Day
10h 58m
Waxing Gibbous, 85% of the Moon is Illuminated
Oct 25
Waxing Gibbous
Oct 29
Full
Nov 6
Last Quarter
Nov 13
New
Nov 20
First Quarter

Hourly Weather History & Observations

Time (MDT) Temp. Windchill Dew Point Humidity Pressure Visibility Wind Dir Wind Speed Gust Speed Precip Events Conditions
12:15 AM 62.6 °F - 26.6 °F 26% 29.81 in 10.0 mi WSW 17.3 mph - N/A   Clear
12:35 AM 62.6 °F - 26.6 °F 26% 29.82 in 10.0 mi WSW 18.4 mph - N/A   Clear
12:55 AM 60.8 °F - 26.6 °F 27% 29.83 in 10.0 mi WSW 17.3 mph - N/A   Clear
1:35 AM 60.8 °F - 28.4 °F 29% 29.85 in 10.0 mi West 16.1 mph - N/A   Clear
1:55 AM 59.0 °F - 28.4 °F 31% 29.87 in 10.0 mi West 11.5 mph - N/A   Clear
2:15 AM 57.2 °F - 28.4 °F 33% 29.87 in 10.0 mi West 10.4 mph - N/A   Clear
2:35 AM 53.6 °F - 26.6 °F 35% 29.88 in 10.0 mi WNW 10.4 mph - N/A   Clear
2:55 AM 55.4 °F - 26.6 °F 33% 29.89 in 10.0 mi NW 10.4 mph - N/A   Clear
3:15 AM 55.4 °F - 26.6 °F 33% 29.89 in 10.0 mi NW 15.0 mph - N/A   Clear
3:35 AM 57.2 °F - 26.6 °F 31% 29.90 in 10.0 mi WNW 12.7 mph - N/A   Clear
3:55 AM 53.6 °F - 24.8 °F 33% 29.91 in 10.0 mi WNW 9.2 mph - N/A   Clear
4:15 AM 50.0 °F - 24.8 °F 37% 29.92 in 10.0 mi WNW 8.1 mph - N/A   Clear
4:35 AM 48.2 °F - 26.6 °F 43% 29.96 in 10.0 mi North 13.8 mph 26.5 mph N/A   Clear
4:55 AM 48.2 °F - 35.6 °F 62% 29.97 in 10.0 mi NNE 16.1 mph - N/A   Clear
5:35 AM 48.2 °F - 37.4 °F 66% 29.99 in 10.0 mi NNE 19.6 mph - N/A   Clear
5:55 AM 46.4 °F 39.2 °F 37.4 °F 71% 30.00 in 10.0 mi NNE 18.4 mph - N/A   Clear
6:15 AM 48.2 °F - 39.2 °F 71% 30.01 in 10.0 mi North 23.0 mph 29.9 mph N/A   Scattered Clouds
6:35 AM 46.4 °F 38.1 °F 37.4 °F 71% 30.03 in 10.0 mi NNE 24.2 mph 31.1 mph N/A   Mostly Cloudy
6:55 AM 44.6 °F 36.1 °F 35.6 °F 71% 30.05 in 10.0 mi NNE 21.9 mph 27.6 mph N/A   Mostly Cloudy
7:35 AM 44.6 °F 35.3 °F 33.8 °F 66% 30.09 in 10.0 mi NNE 26.5 mph 29.9 mph N/A   Mostly Cloudy
7:55 AM 44.6 °F 35.9 °F 33.8 °F 66% 30.10 in 10.0 mi NNE 23.0 mph 28.8 mph N/A   Overcast
8:15 AM 44.6 °F 35.7 °F 33.8 °F 66% 30.11 in 10.0 mi NNE 24.2 mph 34.5 mph N/A   Overcast
8:55 AM 46.4 °F 37.7 °F 33.8 °F 62% 30.14 in 10.0 mi NNE 26.5 mph 31.1 mph N/A   Overcast
9:55 AM 46.4 °F 37.9 °F 32.0 °F 57% 30.16 in 10.0 mi NNE 25.3 mph - N/A   Clear
10:15 AM 48.2 °F - 30.2 °F 50% 30.17 in 10.0 mi NNE 25.3 mph 29.9 mph N/A   Clear
11:15 AM 48.2 °F - 30.2 °F 50% 30.18 in 10.0 mi NNE 27.6 mph 32.2 mph N/A   Clear
11:35 AM 50.0 °F - 28.4 °F 43% 30.18 in 10.0 mi NE 23.0 mph 29.9 mph N/A   Clear
11:55 AM 51.8 °F - 28.4 °F 41% 30.18 in 10.0 mi NNE 24.2 mph 28.8 mph N/A   Clear
12:15 PM 51.8 °F - 28.4 °F 41% 30.18 in 10.0 mi NNE 24.2 mph 28.8 mph N/A   Clear
12:35 PM 51.8 °F - 30.2 °F 44% 30.17 in 10.0 mi NNE 23.0 mph - N/A   Clear
12:55 PM 51.8 °F - 28.4 °F 41% 30.15 in 10.0 mi NE 21.9 mph 28.8 mph N/A   Clear
1:15 PM 53.6 °F - 28.4 °F 38% 30.14 in 10.0 mi NE 19.6 mph 27.6 mph N/A   Clear
1:35 PM 53.6 °F - 28.4 °F 38% 30.13 in 10.0 mi NNE 20.7 mph 26.5 mph N/A   Clear
1:55 PM 53.6 °F - 28.4 °F 38% 30.14 in 10.0 mi NNE 20.7 mph 24.2 mph N/A   Clear
2:15 PM 53.6 °F - 28.4 °F 38% 30.14 in 10.0 mi NNE 17.3 mph - N/A   Clear
2:35 PM 53.6 °F - 28.4 °F 38% 30.14 in 10.0 mi NE 18.4 mph - N/A   Clear
2:55 PM 53.6 °F - 28.4 °F 38% 30.14 in 10.0 mi NNE 16.1 mph 20.7 mph N/A   Clear
3:15 PM 53.6 °F - 28.4 °F 38% 30.14 in 10.0 mi NE 15.0 mph 23.0 mph N/A   Clear
3:35 PM 53.6 °F - 28.4 °F 38% 30.14 in 10.0 mi NE 13.8 mph 19.6 mph N/A   Clear
3:55 PM 53.6 °F - 28.4 °F 38% 30.14 in 10.0 mi NE 15.0 mph 20.7 mph N/A   Clear
4:15 PM 53.6 °F - 28.4 °F 38% 30.15 in 10.0 mi ENE 17.3 mph 20.7 mph N/A   Clear
4:35 PM 51.8 °F - 26.6 °F 38% 30.15 in 10.0 mi ENE 16.1 mph - N/A   Clear
4:55 PM 51.8 °F - 26.6 °F 38% 30.15 in 10.0 mi NE 16.1 mph - N/A   Clear
5:15 PM 50.0 °F - 26.6 °F 40% 30.16 in 10.0 mi NE 15.0 mph - N/A   Clear
5:35 PM 48.2 °F - 26.6 °F 43% 30.16 in 10.0 mi NE 13.8 mph - N/A   Clear
5:55 PM 48.2 °F - 26.6 °F 43% 30.16 in 10.0 mi ENE 12.7 mph - N/A   Clear
6:15 PM 46.4 °F 40.7 °F 26.6 °F 46% 30.16 in 10.0 mi ENE 12.7 mph - N/A   Clear
6:35 PM 46.4 °F 40.7 °F 26.6 °F 46% 30.17 in 10.0 mi ENE 12.7 mph - N/A   Clear
6:55 PM 44.6 °F 39.2 °F 26.6 °F 49% 30.18 in 10.0 mi ENE 10.4 mph - N/A   Clear
7:15 PM 44.6 °F 39.2 °F 24.8 °F 46% 30.19 in 10.0 mi ENE 10.4 mph - N/A   Clear
7:35 PM 42.8 °F 37.5 °F 24.8 °F 49% 30.20 in 10.0 mi NE 9.2 mph - N/A   Clear
7:55 PM 42.8 °F 37.5 °F 24.8 °F 49% 30.21 in 10.0 mi NE 9.2 mph - N/A   Clear
8:15 PM 41.0 °F 34.7 °F 24.8 °F 53% 30.21 in 10.0 mi NE 10.4 mph - N/A   Clear
8:35 PM 39.2 °F 32.0 °F 24.8 °F 56% 30.22 in 10.0 mi NE 11.5 mph - N/A   Clear
8:55 PM 39.2 °F 32.0 °F 24.8 °F 56% 30.22 in 10.0 mi NE 11.5 mph - N/A   Clear
9:15 PM 39.2 °F 32.5 °F 24.8 °F 56% 30.23 in 10.0 mi ENE 10.4 mph - N/A   Clear
9:35 PM 39.2 °F 32.5 °F 24.8 °F 56% 30.25 in 10.0 mi NE 10.4 mph - N/A   Clear
9:55 PM 37.4 °F 30.3 °F 24.8 °F 60% 30.25 in 10.0 mi ENE 10.4 mph - N/A   Clear
10:15 PM 37.4 °F 29.3 °F 24.8 °F 60% 30.25 in 10.0 mi ENE 12.7 mph - N/A   Clear
10:35 PM 37.4 °F 29.8 °F 24.8 °F 60% 30.26 in 10.0 mi ENE 11.5 mph - N/A   Clear
10:55 PM 37.4 °F 30.3 °F 24.8 °F 60% 30.26 in 10.0 mi ENE 10.4 mph - N/A   Clear
11:15 PM 35.6 °F 28.0 °F 24.8 °F 65% 30.26 in 10.0 mi NE 10.4 mph - N/A   Clear
11:35 PM 35.6 °F 28.6 °F 24.8 °F 65% 30.27 in 10.0 mi NE 9.2 mph - N/A   Clear